User: anonymous   Login
Location: Carrières
(48.9495°N, 2.0407°E)
Time: 22:56:14
(UTC+00:00)
Language:

S-56A Canister/Altair - Orbit

View from above orbital plane
View from above orbital plane
View from above satellite
View from above satellite

Ground track
Ground track

The orbit data is extracted from the following two-line orbital elements,

1 00082U 61004B   24107.54104447  .00001300  00000-0  11335-2 0  9993
2 00082  38.8566  57.9221 1164543 356.4078   2.8792 12.26655757979549
Epoch (UTC): 16 April 2024 12:59:06
Eccentricity: 0.1164543
inclination: 38.8566°
perigee height: 639 km
apogee height: 2488 km
right ascension of ascending node: 57.9221°
argument of perigee: 356.4078°
revolutions per day: 12.26655757
mean anomaly at epoch: 2.8792°
orbit number at epoch: 97954

The dashed part of the orbit path shows where the satellite is in the earth's shadow,  

DLR